Time,TemperatureF,DewpointF,PressureIn,WindDirection,WindDirectionDegrees,WindSpeedMPH,WindSpeedGustMPH,Humidity,HourlyPrecipIn,Conditions,Clouds,dailyrainin,SolarRadiationWatts/m^2,SoftwareType,DateUTC
2013-02-05 00:01:00,26.0,22.0,-100.00,WSW,250,2.0,4.0,83,0.00,,,0.00,0.000000,,2013-02-05 07:01:00,
2013-02-05 00:11:00,26.0,22.0,-100.00,WSW,250,2.0,4.0,83,0.00,,,0.00,0.000000,,2013-02-05 07:11:00,
2013-02-05 00:32:00,26.0,22.0,-100.00,WSW,257,2.0,5.0,85,0.00,,,0.00,0.000000,,2013-02-05 07:32:00,
2013-02-05 00:42:00,26.0,22.0,-100.00,WSW,257,2.0,5.0,85,0.00,,,0.00,0.000000,,2013-02-05 07:42:00,
2013-02-05 00:52:00,26.0,22.0,-100.00,WSW,257,2.0,5.0,85,0.00,,,0.00,0.000000,,2013-02-05 07:52:00,
2013-02-05 01:01:00,26.0,22.0,-100.00,WSW,257,2.0,5.0,85,0.00,,,0.00,0.000000,,2013-02-05 08:01:00,
2013-02-05 01:11:00,26.0,22.0,-100.00,WSW,257,2.0,5.0,85,0.00,,,0.00,0.000000,,2013-02-05 08:11:00,
2013-02-05 01:42:00,25.0,21.0,-100.00,West,278,2.0,4.0,85,0.00,,,0.00,0.000000,,2013-02-05 08:42:00,
2013-02-05 01:52:00,25.0,21.0,-100.00,West,278,2.0,4.0,85,0.00,,,0.00,0.000000,,2013-02-05 08:52:00,
2013-02-05 02:02:00,25.0,21.0,-100.00,West,278,2.0,4.0,85,0.00,,,0.00,0.000000,,2013-02-05 09:02:00,
2013-02-05 02:11:00,25.0,21.0,-100.00,West,278,2.0,4.0,85,0.00,,,0.00,0.000000,,2013-02-05 09:11:00,
2013-02-05 02:42:00,26.0,22.0,-100.00,WSW,252,2.0,5.0,84,0.00,,,0.00,0.000000,,2013-02-05 09:42:00,
2013-02-05 02:52:00,26.0,22.0,-100.00,WSW,252,2.0,5.0,84,0.00,,,0.00,0.000000,,2013-02-05 09:52:00,
2013-02-05 03:01:00,26.0,22.0,-100.00,WSW,252,2.0,5.0,84,0.00,,,0.00,0.000000,,2013-02-05 10:01:00,
2013-02-05 03:11:00,26.0,22.0,-100.00,WSW,252,2.0,5.0,84,0.00,,,0.00,0.000000,,2013-02-05 10:11:00,
2013-02-05 03:32:00,27.0,22.0,-100.00,WNW,289,2.0,4.0,81,0.00,,,0.00,0.000000,,2013-02-05 10:32:00,
2013-02-05 03:42:00,27.0,22.0,-100.00,WNW,289,2.0,4.0,81,0.00,,,0.00,0.000000,,2013-02-05 10:42:00,
2013-02-05 03:52:00,27.0,22.0,-100.00,WNW,289,2.0,4.0,81,0.00,,,0.00,0.000000,,2013-02-05 10:52:00,
2013-02-05 04:01:00,27.0,22.0,-100.00,WNW,289,2.0,4.0,81,0.00,,,0.00,0.000000,,2013-02-05 11:01:00,
2013-02-05 04:11:00,27.0,22.0,-100.00,WNW,289,2.0,4.0,81,0.00,,,0.00,0.000000,,2013-02-05 11:11:00,
2013-02-05 04:32:00,27.0,22.0,-100.00,WSW,248,1.0,4.0,81,0.00,,,0.00,0.000000,,2013-02-05 11:32:00,
2013-02-05 04:42:00,27.0,22.0,-100.00,WSW,248,1.0,4.0,81,0.00,,,0.00,0.000000,,2013-02-05 11:42:00,
2013-02-05 04:52:00,27.0,22.0,-100.00,WSW,248,1.0,4.0,81,0.00,,,0.00,0.000000,,2013-02-05 11:52:00,
2013-02-05 05:01:00,27.0,22.0,-100.00,WSW,248,1.0,4.0,81,0.00,,,0.00,0.000000,,2013-02-05 12:01:00,
2013-02-05 05:12:00,27.0,22.0,-100.00,WSW,248,1.0,4.0,81,0.00,,,0.00,0.000000,,2013-02-05 12:12:00,
2013-02-05 05:32:00,27.0,23.0,-100.00,SW,223,2.0,5.0,86,0.00,,,0.00,0.000000,,2013-02-05 12:32:00,
2013-02-05 05:42:00,27.0,23.0,-100.00,SW,223,2.0,5.0,86,0.00,,,0.00,0.000000,,2013-02-05 12:42:00,
2013-02-05 05:52:00,27.0,23.0,-100.00,SW,223,2.0,5.0,86,0.00,,,0.00,0.000000,,2013-02-05 12:52:00,
2013-02-05 06:01:00,27.0,23.0,-100.00,SW,223,2.0,5.0,86,0.00,,,0.00,0.000000,,2013-02-05 13:01:00,
2013-02-05 06:11:00,27.0,23.0,-100.00,SW,223,2.0,5.0,86,0.00,,,0.00,0.000000,,2013-02-05 13:11:00,
2013-02-05 06:32:00,27.0,25.0,-100.00,South,180,2.0,8.0,92,0.00,,,0.00,0.000000,,2013-02-05 13:32:00,
2013-02-05 06:42:00,27.0,25.0,-100.00,South,180,2.0,8.0,92,0.00,,,0.00,0.000000,,2013-02-05 13:42:00,
2013-02-05 06:52:00,27.0,25.0,-100.00,South,180,2.0,8.0,92,0.00,,,0.00,0.000000,,2013-02-05 13:52:00,
2013-02-05 07:01:00,27.0,25.0,-100.00,South,180,2.0,8.0,92,0.00,,,0.00,0.000000,,2013-02-05 14:01:00,
2013-02-05 07:12:00,27.0,25.0,-100.00,South,180,2.0,8.0,92,0.00,,,0.00,0.000000,,2013-02-05 14:12:00,
2013-02-05 07:42:00,27.0,25.0,-100.00,West,275,3.0,10.0,93,0.00,,,0.00,0.000000,,2013-02-05 14:42:00,
2013-02-05 07:52:00,27.0,25.0,-100.00,West,275,3.0,10.0,93,0.00,,,0.00,0.000000,,2013-02-05 14:52:00,
2013-02-05 08:01:00,27.0,25.0,-100.00,West,275,3.0,10.0,93,0.00,,,0.00,0.000000,,2013-02-05 15:01:00,
2013-02-05 08:11:00,27.0,25.0,-100.00,West,275,3.0,10.0,93,0.00,,,0.00,0.000000,,2013-02-05 15:11:00,
2013-02-05 08:32:00,27.0,26.0,-100.00,West,263,2.0,5.0,94,0.00,,,0.00,0.000000,,2013-02-05 15:32:00,
2013-02-05 08:42:00,27.0,26.0,-100.00,West,263,2.0,5.0,94,0.00,,,0.00,0.000000,,2013-02-05 15:42:00,
2013-02-05 08:52:00,27.0,26.0,-100.00,West,263,2.0,5.0,94,0.00,,,0.00,0.000000,,2013-02-05 15:52:00,
2013-02-05 09:01:00,27.0,26.0,-100.00,West,263,2.0,5.0,94,0.00,,,0.00,0.000000,,2013-02-05 16:01:00,
2013-02-05 09:11:00,27.0,26.0,-100.00,West,263,2.0,5.0,94,0.00,,,0.00,0.000000,,2013-02-05 16:11:00,
2013-02-05 09:33:00,28.0,25.0,-100.00,West,259,2.0,4.0,88,0.00,,,-99.99,7.000000,,2013-02-05 16:33:00,
2013-02-05 09:42:00,28.0,25.0,-100.00,West,259,2.0,4.0,88,0.00,,,-99.99,7.000000,,2013-02-05 16:42:00,
2013-02-05 09:52:00,28.0,25.0,-100.00,West,259,2.0,4.0,88,0.00,,,-99.99,7.000000,,2013-02-05 16:52:00,
2013-02-05 10:01:00,28.0,25.0,-100.00,West,259,2.0,4.0,88,0.00,,,-99.99,7.000000,,2013-02-05 17:01:00,
2013-02-05 10:11:00,28.0,25.0,-100.00,West,259,2.0,4.0,88,0.00,,,-99.99,7.000000,,2013-02-05 17:11:00,
2013-02-05 10:32:00,30.0,25.0,-100.00,WSW,249,2.0,4.0,80,0.00,,,0.00,52.000000,,2013-02-05 17:32:00,
2013-02-05 10:42:00,30.0,25.0,-100.00,WSW,249,2.0,4.0,80,0.00,,,0.00,52.000000,,2013-02-05 17:42:00,
2013-02-05 10:52:00,30.0,25.0,-100.00,WSW,249,2.0,4.0,80,0.00,,,0.00,52.000000,,2013-02-05 17:52:00,
2013-02-05 11:01:00,30.0,25.0,-100.00,WSW,249,2.0,4.0,80,0.00,,,0.00,52.000000,,2013-02-05 18:01:00,
2013-02-05 11:11:00,30.0,25.0,-100.00,WSW,249,2.0,4.0,80,0.00,,,0.00,52.000000,,2013-02-05 18:11:00,
2013-02-05 11:32:00,32.0,25.0,-100.00,SW,223,1.0,4.0,74,0.00,,,0.00,90.000000,,2013-02-05 18:32:00,
2013-02-05 11:42:00,32.0,25.0,-100.00,SW,223,1.0,4.0,74,0.00,,,0.00,90.000000,,2013-02-05 18:42:00,
2013-02-05 11:52:00,32.0,25.0,-100.00,SW,223,1.0,4.0,74,0.00,,,0.00,90.000000,,2013-02-05 18:52:00,
2013-02-05 12:02:00,32.0,25.0,-100.00,SW,223,1.0,4.0,74,0.00,,,0.00,90.000000,,2013-02-05 19:02:00,
2013-02-05 12:11:00,32.0,25.0,-100.00,SW,223,1.0,4.0,74,0.00,,,0.00,90.000000,,2013-02-05 19:11:00,
2013-02-05 12:42:00,37.0,25.0,-100.00,SW,230,2.0,5.0,61,0.01,,,0.01,217.000000,,2013-02-05 19:42:00,
2013-02-05 12:52:00,37.0,25.0,-100.00,SW,230,2.0,5.0,61,0.01,,,0.01,217.000000,,2013-02-05 19:52:00,
2013-02-05 13:01:00,37.0,25.0,-100.00,SW,230,2.0,5.0,61,0.01,,,0.01,217.000000,,2013-02-05 20:01:00,
2013-02-05 13:11:00,37.0,25.0,-100.00,SW,230,2.0,5.0,61,0.01,,,0.01,217.000000,,2013-02-05 20:11:00,
2013-02-05 13:32:00,33.0,23.0,-100.00,WSW,254,1.0,4.0,67,0.00,,,-99.99,152.000000,,2013-02-05 20:32:00,
2013-02-05 13:42:00,33.0,23.0,-100.00,WSW,254,1.0,4.0,67,0.00,,,-99.99,152.000000,,2013-02-05 20:42:00,
2013-02-05 13:52:00,33.0,23.0,-100.00,WSW,254,1.0,4.0,67,0.00,,,-99.99,152.000000,,2013-02-05 20:52:00,
2013-02-05 14:01:00,33.0,23.0,-100.00,WSW,254,1.0,4.0,67,0.00,,,-99.99,152.000000,,2013-02-05 21:01:00,
2013-02-05 14:11:00,33.0,23.0,-100.00,WSW,254,1.0,4.0,67,0.00,,,-99.99,152.000000,,2013-02-05 21:11:00,
2013-02-05 14:42:00,36.0,23.0,-100.00,West,268,2.0,6.0,59,0.00,,,0.01,177.000000,,2013-02-05 21:42:00,
2013-02-05 14:52:00,36.0,23.0,-100.00,West,268,2.0,6.0,59,0.00,,,0.01,177.000000,,2013-02-05 21:52:00,
2013-02-05 15:01:00,36.0,23.0,-100.00,West,268,2.0,6.0,59,0.00,,,0.01,177.000000,,2013-02-05 22:01:00,
2013-02-05 15:11:00,36.0,23.0,-100.00,West,268,2.0,6.0,59,0.00,,,0.01,177.000000,,2013-02-05 22:11:00,
2013-02-05 15:32:00,40.0,24.0,-100.00,SW,234,2.0,5.0,52,0.00,,,0.01,264.000000,,2013-02-05 22:32:00,
2013-02-05 15:42:00,40.0,24.0,-100.00,SW,234,2.0,5.0,52,0.00,,,0.01,264.000000,,2013-02-05 22:42:00,
2013-02-05 15:52:00,40.0,24.0,-100.00,SW,234,2.0,5.0,52,0.00,,,0.01,264.000000,,2013-02-05 22:52:00,
2013-02-05 16:01:00,40.0,24.0,-100.00,SW,234,2.0,5.0,52,0.00,,,0.01,264.000000,,2013-02-05 23:01:00,
2013-02-05 16:11:00,40.0,24.0,-100.00,SW,234,2.0,5.0,52,0.00,,,0.01,264.000000,,2013-02-05 23:11:00,
2013-02-05 16:32:00,34.0,21.0,-100.00,WSW,241,3.0,5.0,59,0.00,,,-99.99,243.000000,,2013-02-05 23:32:00,
2013-02-05 16:42:00,34.0,21.0,-100.00,WSW,241,3.0,5.0,59,0.00,,,-99.99,243.000000,,2013-02-05 23:42:00,
2013-02-05 16:52:00,34.0,21.0,-100.00,WSW,241,3.0,5.0,59,0.00,,,-99.99,243.000000,,2013-02-05 23:52:00,
2013-02-05 17:01:00,34.0,21.0,-100.00,WSW,241,3.0,5.0,59,0.00,,,-99.99,243.000000,,2013-02-06 00:01:00,
2013-02-05 17:11:00,34.0,21.0,-100.00,WSW,241,3.0,5.0,59,0.00,,,-99.99,243.000000,,2013-02-06 00:11:00,
2013-02-05 17:32:00,33.0,22.0,-100.00,SW,227,2.0,4.0,63,0.00,,,0.01,109.000000,,2013-02-06 00:32:00,
2013-02-05 17:42:00,33.0,22.0,-100.00,SW,227,2.0,4.0,63,0.00,,,0.01,109.000000,,2013-02-06 00:42:00,
2013-02-05 17:52:00,33.0,22.0,-100.00,SW,227,2.0,4.0,63,0.00,,,0.01,109.000000,,2013-02-06 00:52:00,
2013-02-05 18:01:00,33.0,22.0,-100.00,SW,227,2.0,4.0,63,0.00,,,0.01,109.000000,,2013-02-06 01:01:00,
2013-02-05 18:11:00,33.0,22.0,-100.00,SW,227,2.0,4.0,63,0.00,,,0.01,109.000000,,2013-02-06 01:11:00,
2013-02-05 18:32:00,31.0,24.0,-100.00,West,269,1.0,8.0,74,0.00,,,0.01,59.000000,,2013-02-06 01:32:00,
2013-02-05 18:42:00,31.0,24.0,-100.00,West,269,1.0,8.0,74,0.00,,,0.01,59.000000,,2013-02-06 01:42:00,
2013-02-05 18:53:00,31.0,24.0,-100.00,West,269,1.0,8.0,74,0.00,,,0.01,59.000000,,2013-02-06 01:53:00,
2013-02-05 19:01:00,31.0,24.0,-100.00,West,269,1.0,8.0,74,0.00,,,0.01,59.000000,,2013-02-06 02:01:00,
2013-02-05 19:11:00,31.0,24.0,-100.00,West,269,1.0,8.0,74,0.00,,,0.01,59.000000,,2013-02-06 02:11:00,
2013-02-05 19:42:00,28.0,23.0,-100.00,West,276,2.0,5.0,81,0.00,,,0.01,12.000000,,2013-02-06 02:42:00,
2013-02-05 19:52:00,28.0,23.0,-100.00,West,276,2.0,5.0,81,0.00,,,0.01,12.000000,,2013-02-06 02:52:00,
2013-02-05 20:02:00,28.0,23.0,-100.00,West,276,2.0,5.0,81,0.00,,,0.01,12.000000,,2013-02-06 03:02:00,
2013-02-05 20:11:00,28.0,23.0,-100.00,West,276,2.0,5.0,81,0.00,,,0.01,12.000000,,2013-02-06 03:11:00,
2013-02-05 20:32:00,28.0,22.0,-100.00,SW,236,2.0,5.0,78,0.00,,,0.01,0.000000,,2013-02-06 03:32:00,
2013-02-05 20:42:00,28.0,22.0,-100.00,SW,236,2.0,5.0,78,0.00,,,0.01,0.000000,,2013-02-06 03:42:00,
2013-02-05 20:52:00,28.0,22.0,-100.00,SW,236,2.0,5.0,78,0.00,,,0.01,0.000000,,2013-02-06 03:52:00,
2013-02-05 21:01:00,28.0,22.0,-100.00,SW,236,2.0,5.0,78,0.00,,,0.01,0.000000,,2013-02-06 04:01:00,
2013-02-05 21:11:00,28.0,22.0,-100.00,SW,236,2.0,5.0,78,0.00,,,0.01,0.000000,,2013-02-06 04:11:00,
2013-02-05 21:42:00,27.0,24.0,-100.00,WSW,246,1.0,6.0,87,0.00,,,0.01,0.000000,,2013-02-06 04:42:00,
2013-02-05 21:52:00,27.0,24.0,-100.00,WSW,246,1.0,6.0,87,0.00,,,0.01,0.000000,,2013-02-06 04:52:00,
2013-02-05 22:01:00,27.0,24.0,-100.00,WSW,246,1.0,6.0,87,0.00,,,0.01,0.000000,,2013-02-06 05:01:00,
2013-02-05 22:12:00,27.0,24.0,-100.00,WSW,246,1.0,6.0,87,0.00,,,0.01,0.000000,,2013-02-06 05:12:00,
2013-02-05 22:42:00,26.0,25.0,-100.00,WSW,244,2.0,7.0,96,0.00,,,0.01,0.000000,,2013-02-06 05:42:00,
2013-02-05 22:53:00,26.0,25.0,-100.00,WSW,244,2.0,7.0,96,0.00,,,0.01,0.000000,,2013-02-06 05:53:00,
2013-02-05 23:01:00,26.0,25.0,-100.00,WSW,244,2.0,7.0,96,0.00,,,0.01,0.000000,,2013-02-06 06:01:00,
2013-02-05 23:11:00,26.0,25.0,-100.00,WSW,244,2.0,7.0,96,0.00,,,0.01,0.000000,,2013-02-06 06:11:00,
2013-02-05 23:32:00,25.0,24.0,-100.00,WSW,246,2.0,10.0,95,0.00,,,0.01,0.000000,,2013-02-06 06:32:00,
2013-02-05 23:42:00,25.0,24.0,-100.00,WSW,246,2.0,10.0,95,0.00,,,0.01,0.000000,,2013-02-06 06:42:00,
2013-02-05 23:52:00,25.0,24.0,-100.00,WSW,246,2.0,10.0,95,0.00,,,0.01,0.000000,,2013-02-06 06:52:00,